CZ-3C DEB, 40858

Orbit data source: Space-Track

CZ-3C DEB, 40858 is space debris in HEO originally from a launch on Fri, 24 Feb 2012 UTC launched from the Xichang Space Center, China (XSC). Debris objects in space refer to the collection of defunct objects orbiting the Earth. Examples of debris include non-operational satellites, rocket bodies, and fragments generated from explosions, collisions, or faulty payload assembly.

Not visible in the next 10 days
Identifier
40858, 2012-008Y
Orbit
HEO
Country
Flag of CNCN / PRC
Related business
Manufacturer
CALT
Mission
Spacecraft
Bus & Motor
Unknown
Mass
Unknown
Launch date (UTC)
2012-02-24 (14 years ago)
Launch vehicle
Unknown
Launch site
Xichang Space Center, China (XSC)
Object type
Payload
Rocket body
Debris
Shape & HBR
Unknown shape, 0.1 m
Radar Cross Section
Medium (>0.1 m² and <1 m²)

Expand to show TLE details & history
Last TLE update: 15 hours ago

TLE from 15 hours ago
0 CZ-3C DEB
1 40858U 12008Y   25293.83502031  .00000077  00000-0  33905-2 0  9995
2 40858  17.8848 153.5984 7269323  33.9574 356.3330  2.12239641 84130
Epoch: 2025-10-20T20:02Z
TLE epoch observation values (Epoch: 2025-10-20T20:02:25.754Z)
Latitude
-0.00022°
Longitude
-176.43366°
Altitude
1,119.053 km
Speed
9.526 km/s
True Right ascension
10h 14m 49s
True Declination
0° 00' 01"
Sunlit
Object was in daylight at epoch
Visualization orbit readout
Latitude
Unknown
Longitude
Unknown
Altitude
Unknown
Speed
Unknown
Apparent Right ascension
Unknown
Apparent Declination
Unknown
Sunlit
N/A
Visualization observer readout
Local Sidereal Time
06:02:47
Azimuth
Unknown
Elevation
Unknown
Doppler factor
Unknown
Orbital elements
Apogee altitude
37,799.648 km
Perigee altitude
607.386 km
Semi-major axis
25,581.654 km
Eccentricity
0.72693
Inclination
17.8848°
RAAN
153.5984°
Arg. of periapsis
33.9574°
True anomaly
327.73121°
Mean anomaly
356.333°
Eccentric anomaly
346.87582°
Mean motion
0.53046 °/min
Orbital period
678.66 mins
BSTAR
0.0033905
Loading maneuver chart data...
Computing Atmospheric mass density...
Loading historical data...
Loading historical data...
Loading historical data...
Loading historical data...
Loading historical data...
Loading historical data...
Loading historical data...

Documentation

Showing up to 5 results
|